NOAA 16 DEB

Satellite information

Favourite Embed

Satellite Type and Status

DEBRISIN ORBIT

Key statistics

Satellite NOAA 16 DEB at a glance.

Uptime

9055

Days in orbit

Revolutions

≈ 14.4

Per day

Orbit

SSO

Sun Synchronous Orbit

Inclination

98.7

Latest

Satellite identification and parameters

Extended collection of information and parameters for NOAA 16 DEB.

Object identification

Identified? True

Debris? True

Object name: NOAA 16 DEB

International designator: 2000-055KN

Object number (NORAD): 41409

Object ID (CCSDS): 41409

Country: UNITED STATES OF AMERICA (US)

Current information (Y/N): Y

RCS size: SMALL

Orbital parameters

Period: 100.136 minutes

Inclination: 98.655 deg

SMA: 7143.101 km

Apoapsis: 786.206 km

Periapsis: 743.727 km

RAAN: 264.7652 deg

Eccentricy: 0.0029734

Argument of periapsis: 156.777 deg

Mean anomaly: 203.4767 deg

Mean motion: 14.3804525 rev/day

Mean motion (dot): 0.00005253 rev/day2

B* drag term: 0.0017399 1/REarth

Two-line elements (TLE)

Creation date: July 5, 2025, 5:45 p.m.

Reference frame: TEME

Reference center: EARTH

Epoch: July 5, 2025, 3:50 a.m. UTC

TLE line 0: 0 NOAA 16 DEB

TLE line 1: 1 41409U 00055KN 25186.16015266 .00005253 00000-0 17399-2 0 9993

TLE line 2: 2 41409 98.6550 264.7652 0029734 156.7770 203.4767 14.38045250485999

Live tracking on map

Real-time ground track for satellite NOAA 16 DEB.

In-orbit conjunctions

A list of the most updated potential collisions computed for object NOAA 16 DEB.

Target Orbit TCA Probability of collision Miss distance Type
COSMOS 1371 LEO 2025-03-22 08:50:16 0.0001407152 839.0 (m) PAYLOAD
COSMOS 1275 DEB LEO 2024-06-24 18:56:48 0.000220916 89.0 (m) DEBRIS

Associated space launch

The NOAA K, L and M POES satellites begin the fifth generation of improved environmental monitoring in support of NOAA missions. The instrument payload has significant improvements and additions/deletions. The instrument changes have effected the spacecraft subsystems and data formats.

NOAA 16 DEB was lifted into orbit during the mission ‘Titan II SLV | NOAA 16’, on board a Titan II SLV space rocket.

The launch took place on Sept. 21, 2000, 10:22 a.m. from Space Launch Complex 4W.

For more information about the launch, click the button.

Launch to space Titan II SLV | NOAA 16
Titan II SLV | NOAA 16

Agency: N/A

Status: Launch Successful

Launch date: Sept. 21, 2000, 10:22 a.m. UTC

Rocket: Titan II SLV

Launch pad: Space Launch Complex 4W

Location: Vandenberg SFB, CA, USA

...

Latest news about this satellite

There are no fresh news available about this satellite. Check back as we update our databases every day.


Newsletter sign-up

Weekly statistics, charts and insights to help you stay on top of the space industry.